OH6GKW Weather Reports


Display with metric or nautical units.
time (UTC)temp
F
wind
direction
speed
MPH
gust
MPH
rain 1hr
in
rain 24hr
in
rain mn
in
humidity
%
barometer
mb
20260507080344 43 272 4.0 0.0 0.00 0.00 0.00 76 1014.0
20260507075836 43 285 4.0 0.0 0.00 0.00 0.00 76 1014.0
20260507075329 43 267 2.0 0.0 0.00 0.00 0.00 76 1014.0
20260507074841 43 250 2.0 0.0 0.00 0.00 0.00 77 1014.0
20260507074334 42 206 3.0 0.0 0.00 0.00 0.00 77 1013.8
20260507073830 42 204 2.0 0.0 0.00 0.00 0.00 78 1013.8
20260507073357 42 226 2.0 0.0 0.00 0.00 0.00 78 1013.8
20260507072843 42 227 3.0 0.0 0.00 0.00 0.00 78 1013.7
20260507072340 42 279 4.0 0.0 0.00 0.00 0.00 78 1013.7
20260507071832 42 315 5.0 0.0 0.00 0.00 0.00 78 1013.7
20260507071348 42 254 6.0 0.0 0.00 0.00 0.00 79 1013.4
20260507070840 42 293 6.0 0.0 0.00 0.00 0.00 79 1013.4
20260507070335 42 276 6.0 0.0 0.00 0.00 0.00 78 1013.4
20260507065828 42 276 7.0 0.0 0.00 0.00 0.00 78 1013.5
20260507065352 42 292 5.0 0.0 0.00 0.00 0.00 77 1013.5
20260507064843 42 286 5.0 0.0 0.00 0.00 0.00 76 1013.5
20260507064336 42 233 6.0 0.0 0.00 0.00 0.00 75 1013.5
20260507063833 43 267 6.0 0.0 0.00 0.00 0.00 75 1013.5
20260507063344 43 279 6.0 0.0 0.00 0.00 0.00 75 1013.5
20260507062835 43 259 6.0 0.0 0.00 0.00 0.00 74 1013.2
20260507062331 43 299 7.0 0.0 0.00 0.00 0.00 74 1013.2
20260507061843 43 251 6.0 0.0 0.00 0.00 0.00 73 1013.2
20260507061336 43 271 6.0 0.0 0.00 0.00 0.00 75 1013.1
20260507060832 43 240 6.0 0.0 0.00 0.00 0.00 75 1013.1
20260507060401 42 289 5.0 0.0 0.00 0.00 0.00 76 1013.1
20260507055851 42 255 4.0 0.0 0.00 0.00 0.00 76 1012.9
20260507055343 42 268 4.0 0.0 0.00 0.00 0.00 76 1012.9
20260507054835 41 254 3.0 0.0 0.00 0.00 0.00 77 1012.9
20260507054345 41 262 4.0 0.0 0.00 0.00 0.00 77 1012.9
20260507053836 41 165 4.0 0.0 0.00 0.00 0.00 76 1012.9
20260507053331 40 262 3.0 0.0 0.00 0.00 0.00 76 1012.9
20260507052841 40 228 2.0 0.0 0.00 0.00 0.00 76 1012.8
20260507052346 40 241 2.0 0.0 0.00 0.00 0.00 76 1012.8
20260507051842 39 197 1.0 0.0 0.00 0.00 0.00 77 1012.8
20260507051333 39 182 1.0 0.0 0.00 0.00 0.00 76 1012.7
20260507050844 39 235 2.0 0.0 0.00 0.00 0.00 76 1012.7
20260507050339 39 220 2.0 0.0 0.00 0.00 0.00 76 1012.7
20260507045830 39 192 2.0 0.0 0.00 0.00 0.00 76 1012.8
20260507045339 39 203 2.0 0.0 0.00 0.00 0.00 76 1012.8
20260507044831 38 195 2.0 0.0 0.00 0.00 0.00 76 1012.8
20260507044359 38 228 3.0 0.0 0.00 0.00 0.00 76 1012.7
20260507043852 38 204 3.0 0.0 0.00 0.00 0.00 76 1012.7
20260507043351 37 185 2.0 0.0 0.00 0.00 0.00 77 1012.7
20260507042841 37 206 3.0 0.0 0.00 0.00 0.00 78 1012.6
20260507042341 36 202 3.0 0.0 0.00 0.00 0.00 78 1012.6
20260507041834 36 179 2.0 0.0 0.00 0.00 0.00 79 1012.6
20260507041347 35 179 2.0 0.0 0.00 0.00 0.00 81 1012.6
20260507040840 35 193 0.0 0.0 0.00 0.00 0.00 82 1012.6
20260507040333 34 180 0.0 0.0 0.00 0.00 0.00 83 1012.6
20260507035844 34 180 0.0 0.0 0.00 0.00 0.00 84 1012.5
20260507035337 33 180 0.0 0.0 0.00 0.00 0.00 85 1012.5
20260507034830 33 180 0.0 0.0 0.00 0.00 0.00 86 1012.5
20260507034331 32 182 0.0 0.0 0.00 0.00 0.00 87 1012.5
20260507033854 32 189 0.0 0.0 0.00 0.00 0.00 87 1012.5
20260507033349 31 190 1.0 0.0 0.00 0.00 0.00 87 1012.5
20260507032839 31 196 2.0 0.0 0.00 0.00 0.00 88 1012.2
20260507032332 31 155 2.0 0.0 0.00 0.00 0.00 88 1012.2
20260507031845 31 189 1.0 0.0 0.00 0.00 0.00 88 1012.2
20260507031337 31 145 1.0 0.0 0.00 0.00 0.00 89 1012.3
20260507030830 31 173 1.0 0.0 0.00 0.00 0.00 89 1012.3
20260507030344 30 182 1.0 0.0 0.00 0.00 0.00 89 1012.3
20260507025833 30 178 1.0 0.0 0.00 0.00 0.00 89 1012.2
20260507025357 30 171 1.0 0.0 0.00 0.00 0.00 89 1012.2
20260507024849 30 186 1.0 0.0 0.00 0.00 0.00 89 1012.2
20260507024345 30 186 0.0 0.0 0.00 0.00 0.00 89 1012.2
20260507023838 30 176 0.0 0.0 0.00 0.00 0.00 89 1012.2
20260507023333 30 172 0.0 0.0 0.00 0.00 0.00 89 1012.2
20260507022844 30 172 0.0 0.0 0.00 0.00 0.00 88 1012.2
20260507022333 31 172 0.0 0.0 0.00 0.00 0.00 88 1012.2
20260507021829 31 172 0.0 0.0 0.00 0.00 0.00 88 1012.2
20260507021357 31 172 0.0 0.0 0.00 0.00 0.00 88 1012.2
20260507020852 31 166 1.0 0.0 0.00 0.00 0.00 87 1012.2
20260507020347 31 176 1.0 0.0 0.00 0.00 0.00 87 1012.2
20260507015842 31 193 1.0 0.0 0.00 0.00 0.00 87 1012.1
20260507015338 31 186 1.0 0.0 0.00 0.00 0.00 87 1012.1
20260507014831 31 186 1.0 0.0 0.00 0.00 0.00 87 1012.1
20260507014344 31 166 2.0 0.0 0.00 0.00 0.00 86 1012.1
20260507013839 32 179 3.0 0.0 0.00 0.00 0.00 86 1012.1
20260507013334 32 195 3.0 0.0 0.00 0.00 0.00 86 1012.1
20260507012841 32 193 3.0 0.0 0.00 0.00 0.00 86 1011.9
20260507012334 32 189 3.0 0.0 0.00 0.00 0.00 85 1011.9
20260507011858 32 190 2.0 0.0 0.00 0.00 0.00 85 1011.9
20260507011354 32 190 2.0 0.0 0.00 0.00 0.00 85 1012.0
20260507010850 32 172 2.0 0.0 0.00 0.00 0.00 85 1012.0
20260507010345 33 180 2.0 0.0 0.00 0.00 0.00 84 1012.0
20260507005836 33 180 2.0 0.0 0.00 0.00 0.00 84 1011.9
20260507005329 33 196 2.0 0.0 0.00 0.00 0.00 84 1011.9
20260507004842 33 190 3.0 0.0 0.00 0.00 0.00 84 1011.9
20260507004335 33 178 3.0 0.0 0.00 0.00 0.00 84 1011.9
20260507003854 33 142 3.0 0.0 0.00 0.00 0.00 85 1011.9
20260507003349 33 185 3.0 0.0 0.00 0.00 0.00 85 1011.9
20260507002843 32 189 2.0 0.0 0.00 0.00 0.00 86 1011.9
20260507002336 32 180 2.0 0.0 0.00 0.00 0.00 86 1011.9
20260507001848 32 195 2.0 0.0 0.00 0.00 0.00 86 1011.9
20260507001341 32 180 1.0 0.0 0.00 0.00 0.00 86 1011.7
20260507000833 33 176 0.0 0.0 0.00 0.00 0.00 85 1011.7
20260507000347 33 176 0.0 0.0 0.00 0.00 0.00 85 1011.7
20260506235838 33 176 0.0 0.0 0.00 0.00 0.00 85 1011.6
20260506235331 33 176 0.0 0.0 0.00 0.00 0.00 84 1011.6
20260506234854 33 176 0.0 0.0 0.00 0.00 0.00 84 1011.6
20260506234347 33 178 0.0 0.0 0.00 0.00 0.00 84 1011.5
20260506233839 33 187 1.0 0.0 0.00 0.00 0.00 84 1011.5
20260506233334 34 187 1.0 0.0 0.00 0.00 0.00 84 1011.5
20260506232829 34 183 0.0 0.0 0.00 0.00 0.00 84 1011.5
20260506232342 34 176 0.0 0.0 0.00 0.00 0.00 84 1011.5
20260506231839 34 176 0.0 0.0 0.00 0.00 0.00 84 1011.5
20260506231339 34 180 1.0 0.0 0.00 0.00 0.00 84 1011.4
20260506230832 34 185 1.0 0.0 0.00 0.00 0.00 83 1011.4
20260506230330 34 183 1.0 0.0 0.00 0.00 0.00 83 1011.4
20260506225837 34 193 1.0 0.0 0.00 0.00 0.00 83 1011.3
20260506225334 34 183 1.0 0.0 0.00 0.00 0.00 83 1011.3
20260506224857 35 193 1.0 0.0 0.00 0.00 0.00 83 1011.3
20260506224332 35 185 1.0 0.0 0.00 0.00 0.00 83 1011.2
20260506223843 35 178 1.0 0.0 0.00 0.00 0.00 82 1011.2
20260506223338 35 189 0.0 0.0 0.00 0.00 0.00 80 1011.2
20260506222828 36 193 0.0 0.0 0.00 0.00 0.00 80 1011.1
20260506222341 36 193 0.0 0.0 0.00 0.00 0.00 79 1011.1
20260506221837 36 196 0.0 0.0 0.00 0.00 0.00 79 1011.1
20260506221329 36 196 0.0 0.0 0.00 0.00 0.00 78 1011.0
20260506220849 37 196 1.0 0.0 0.00 0.00 0.00 78 1011.0
20260506220344 37 196 1.0 0.0 0.00 0.00 0.00 77 1011.0
20260506215833 37 200 1.0 0.0 0.00 0.00 0.00 76 1010.9
20260506215329 38 206 1.0 0.0 0.00 0.00 0.00 75 1010.9
20260506214841 38 195 1.0 0.0 0.00 0.00 0.00 75 1010.9
20260506214334 38 195 1.0 0.0 0.00 0.00 0.00 74 1010.7
20260506213847 38 199 2.0 0.0 0.00 0.00 0.00 73 1010.7
20260506213341 39 185 2.0 0.0 0.00 0.00 0.00 72 1010.7
20260506212835 39 203 2.0 0.0 0.00 0.00 0.00 71 1010.6
20260506212331 39 199 2.0 0.0 0.00 0.00 0.00 70 1010.6
20260506211851 39 216 2.0 0.0 0.00 0.00 0.00 70 1010.6
20260506211344 39 207 2.0 0.0 0.00 0.00 0.00 70 1010.5
20260506210836 40 221 3.0 0.0 0.00 0.00 0.00 70 1010.5
20260506210331 40 224 3.0 0.0 0.00 0.00 0.00 70 1010.5
20260506205845 40 193 2.0 0.0 0.00 0.00 0.00 70 1010.5
20260506205338 40 227 2.0 0.0 0.00 0.00 0.00 70 1010.5
20260506204830 40 200 2.0 0.0 0.00 0.00 0.00 70 1010.5
20260506204355 40 190 3.0 0.0 0.00 0.00 0.00 70 1010.5
20260506203849 40 210 3.0 0.0 0.00 0.00 0.00 71 1010.5
20260506203344 40 187 4.0 0.0 0.00 0.00 0.00 72 1010.5
20260506202835 39 199 3.0 0.0 0.00 0.00 0.00 73 1010.5
20260506202344 39 190 3.0 0.0 0.00 0.00 0.00 73 1010.5
20260506201836 39 190 3.0 0.0 0.00 0.00 0.00 74 1010.5
20260506201328 39 206 3.0 0.0 0.00 0.00 0.00 74 1010.5
20260506200840 39 192 3.0 0.0 0.00 0.00 0.00 74 1010.5
20260506200335 39 192 3.0 0.0 0.00 0.00 0.00 75 1010.5
20260506195857 39 195 3.0 0.0 0.00 0.00 0.00 75 1010.4
20260506195350 39 195 2.0 0.0 0.00 0.00 0.00 75 1010.4
20260506194842 39 206 2.0 0.0 0.00 0.00 0.00 76 1010.4
20260506194335 39 192 2.0 0.0 0.00 0.00 0.00 76 1010.4
20260506193835 39 189 2.0 0.0 0.00 0.00 0.00 75 1010.4
20260506193349 39 193 1.0 0.0 0.00 0.00 0.00 75 1010.4
20260506192839 39 185 0.0 0.0 0.00 0.00 0.00 74 1010.3
20260506192335 39 187 1.0 0.0 0.00 0.00 0.00 74 1010.3
20260506191848 40 187 1.0 0.0 0.00 0.00 0.00 73 1010.3
20260506191341 40 192 1.0 0.0 0.00 0.00 0.00 72 1010.3
20260506190833 40 196 1.0 0.0 0.00 0.00 0.00 71 1010.3
20260506190359 41 195 1.0 0.0 0.00 0.00 0.00 71 1010.3
20260506185850 41 195 1.0 0.0 0.00 0.00 0.00 71 1010.2
20260506185330 41 200 1.0 0.0 0.00 0.00 0.00 70 1010.2
20260506184850 41 199 2.0 0.0 0.00 0.00 0.00 70 1010.2
20260506184343 42 200 2.0 0.0 0.00 0.00 0.00 69 1010.0
20260506183838 42 207 1.0 0.0 0.00 0.00 0.00 68 1010.0
20260506183336 42 209 2.0 0.0 0.00 0.00 0.00 68 1010.0
20260506182846 43 196 3.0 0.0 0.00 0.00 0.00 67 1010.0
20260506182338 43 226 2.0 0.0 0.00 0.00 0.00 67 1010.0
20260506181830 43 224 2.0 0.0 0.00 0.00 0.00 67 1010.0
20260506181344 43 227 2.0 0.0 0.00 0.00 0.00 67 1010.0
20260506180834 43 241 2.0 0.0 0.00 0.00 0.00 67 1010.0
20260506180400 43 241 3.0 0.0 0.00 0.00 0.00 67 1010.0
20260506175846 43 245 4.0 0.0 0.00 0.00 0.00 66 1009.9
20260506175339 44 223 4.0 0.0 0.00 0.00 0.00 65 1009.9
20260506174831 44 216 3.0 0.0 0.00 0.00 0.00 64 1009.9
20260506174344 44 227 3.0 0.0 0.00 0.00 0.00 65 1009.9
20260506173836 44 228 4.0 0.0 0.00 0.00 0.00 65 1009.9
20260506173331 44 254 5.0 0.0 0.00 0.00 0.00 64 1009.9
20260506172845 44 252 6.0 0.0 0.00 0.00 0.00 64 1009.7
20260506172338 44 217 6.0 0.0 0.00 0.00 0.00 64 1009.7
20260506171830 44 248 7.0 0.0 0.00 0.00 0.00 63 1009.7
20260506171355 44 257 7.0 0.0 0.00 0.00 0.00 63 1009.6
20260506170842 45 224 6.0 0.0 0.00 0.00 0.00 62 1009.6
20260506170336 45 202 6.0 0.0 0.00 0.00 0.00 62 1009.6
20260506165848 45 228 5.0 0.0 0.00 0.00 0.00 60 1009.5
20260506165341 45 228 6.0 0.0 0.00 0.00 0.00 60 1009.5
20260506164840 45 227 6.0 0.0 0.00 0.00 0.00 59 1009.5
20260506164333 45 271 7.0 0.0 0.00 0.00 0.00 58 1009.5
20260506163845 45 216 7.0 0.0 0.00 0.00 0.00 58 1009.5
20260506163344 45 267 8.0 0.0 0.00 0.00 0.00 57 1009.5
20260506162832 45 265 8.0 0.0 0.00 0.00 0.00 57 1009.5
20260506162355 46 251 7.0 0.0 0.00 0.00 0.00 57 1009.5
20260506161837 46 255 7.0 0.0 0.00 0.00 0.00 56 1009.5
20260506161335 46 199 6.0 0.0 0.00 0.00 0.00 57 1009.4
20260506160830 46 255 5.0 0.0 0.00 0.00 0.00 57 1009.4
20260506160357 46 226 6.0 0.0 0.00 0.00 0.00 58 1009.4
20260506155850 46 265 6.0 0.0 0.00 0.00 0.00 57 1009.4
20260506155343 46 227 8.0 0.0 0.00 0.00 0.00 59 1009.4
20260506154838 45 279 9.0 0.0 0.00 0.00 0.00 58 1009.4
20260506154334 46 228 8.0 0.0 0.00 0.00 0.00 58 1009.3
20260506153845 46 248 8.0 0.0 0.00 0.00 0.00 58 1009.3
20260506153344 46 231 8.0 0.0 0.00 0.00 0.00 57 1009.3
20260506152833 46 264 8.0 0.0 0.00 0.00 0.00 58 1009.3
20260506152341 46 255 9.0 0.0 0.00 0.00 0.00 58 1009.3
20260506151833 46 272 10.0 0.0 0.00 0.00 0.00 57 1009.3
20260506151357 46 228 9.0 0.0 0.00 0.00 0.00 56 1009.1
20260506150850 46 264 7.0 0.0 0.00 0.00 0.00 57 1009.1
20260506150349 46 230 7.0 0.0 0.00 0.00 0.00 57 1009.1
20260506145841 46 235 8.0 0.0 0.00 0.00 0.00 56 1009.0
20260506145338 46 244 9.0 0.0 0.00 0.00 0.00 58 1009.0
20260506144834 46 306 8.0 0.0 0.00 0.00 0.00 56 1009.0
20260506144329 46 275 8.0 0.0 0.00 0.00 0.00 56 1009.0
20260506143847 46 245 8.0 0.0 0.00 0.00 0.00 57 1009.0
20260506143338 46 226 10.0 0.0 0.00 0.00 0.00 57 1009.0
20260506142832 46 257 8.0 0.0 0.00 0.00 0.00 58 1009.0
20260506142345 46 265 8.0 0.0 0.00 0.00 0.00 57 1009.0
20260506141837 45 231 9.0 0.0 0.00 0.00 0.00 58 1009.0
20260506141330 46 298 9.0 0.0 0.00 0.00 0.00 57 1009.0
20260506140841 46 296 9.0 0.0 0.00 0.00 0.00 58 1009.0
20260506140340 46 289 8.0 0.0 0.00 0.00 0.00 58 1009.0
20260506135830 46 223 7.0 0.0 0.00 0.00 0.00 58 1008.9
20260506135353 46 228 6.0 0.0 0.00 0.00 0.00 57 1008.9
20260506134851 46 197 7.0 0.0 0.00 0.00 0.00 57 1008.9
20260506134347 45 237 8.0 0.0 0.00 0.00 0.00 57 1008.8
20260506133839 45 258 9.0 0.0 0.00 0.00 0.00 56 1008.8
20260506133334 45 227 9.0 0.0 0.00 0.00 0.00 56 1008.8
20260506132844 45 276 8.0 0.0 0.00 0.00 0.00 55 1008.7
20260506132336 46 276 7.0 0.0 0.00 0.00 0.00 56 1008.7
20260506131848 46 193 8.0 0.0 0.00 0.00 0.00 56 1008.7
20260506131345 45 285 7.0 0.0 0.00 0.00 0.00 56 1008.5
20260506130840 45 257 7.0 0.0 0.00 0.00 0.00 57 1008.5
20260506130339 45 211 8.0 0.0 0.00 0.00 0.00 58 1008.5
20260506125832 45 267 8.0 0.0 0.00 0.00 0.00 59 1008.5
20260506125353 45 268 7.0 0.0 0.00 0.00 0.00 59 1008.5
20260506124848 45 207 8.0 0.0 0.00 0.00 0.00 59 1008.5
20260506124341 45 221 8.0 0.0 0.00 0.00 0.00 60 1008.5
20260506123836 45 226 8.0 0.0 0.00 0.00 0.00 62 1008.5
20260506123331 44 220 7.0 0.0 0.00 0.00 0.00 62 1008.5
20260506122845 44 204 7.0 0.0 0.00 0.00 0.00 62 1008.4
20260506122338 44 226 8.0 0.0 0.00 0.00 0.00 63 1008.4
20260506121833 44 240 8.0 0.0 0.00 0.00 0.00 64 1008.4
20260506121358 44 219 7.0 0.0 0.00 0.00 0.00 65 1008.3
20260506120842 44 245 7.0 0.0 0.00 0.00 0.00 65 1008.3
20260506120355 43 240 8.0 0.0 0.00 0.00 0.00 64 1008.3
20260506115830 43 216 7.0 0.0 0.00 0.00 0.00 63 1008.1
20260506115354 43 282 7.0 0.0 0.00 0.00 0.00 65 1008.1
20260506114846 42 204 7.0 0.0 0.00 0.00 0.00 65 1008.1
20260506114339 42 281 6.0 0.0 0.00 0.00 0.00 65 1008.0
20260506113834 42 190 6.0 0.0 0.00 0.00 0.00 67 1008.0
20260506113349 42 228 6.0 0.0 0.00 0.00 0.00 67 1008.0
20260506112844 42 210 6.0 0.0 0.00 0.00 0.00 66 1007.9
20260506112337 41 228 7.0 0.0 0.00 0.00 0.00 67 1007.9
20260506111831 41 216 7.0 0.0 0.00 0.00 0.00 66 1007.9
20260506111327 41 272 7.0 0.0 0.00 0.00 0.00 67 1007.7
20260506110851 41 228 8.0 0.0 0.00 0.00 0.00 66 1007.7
20260506110348 41 248 7.0 0.0 0.00 0.00 0.00 68 1007.7
20260506105838 41 257 7.0 0.0 0.00 0.00 0.00 68 1007.5
20260506105331 41 261 8.0 0.0 0.00 0.00 0.00 69 1007.5
20260506104844 41 226 8.0 0.0 0.00 0.00 0.00 68 1007.5
20260506104337 41 244 8.0 0.0 0.00 0.00 0.00 69 1007.4
20260506103833 41 247 7.0 0.0 0.00 0.00 0.00 69 1007.4
20260506103348 41 189 7.0 0.0 0.00 0.00 0.00 68 1007.4
20260506102840 41 227 8.0 0.0 0.00 0.00 0.00 69 1007.2
20260506102333 41 193 8.0 0.0 0.00 0.00 0.00 69 1007.2
20260506101837 41 228 8.0 0.0 0.00 0.00 0.00 69 1007.2
20260506101345 40 228 8.0 0.0 0.00 0.00 0.00 68 1006.9
20260506100837 40 224 7.0 0.0 0.00 0.00 0.00 69 1006.9
20260506100332 40 219 7.0 0.0 0.00 0.00 0.00 69 1006.9
20260506095842 40 227 6.0 0.0 0.00 0.00 0.00 70 1006.8
20260506095335 40 228 6.0 0.0 0.00 0.00 0.00 69 1006.8
20260506094859 40 216 7.0 0.0 0.00 0.00 0.00 70 1006.8
20260506094352 40 217 7.0 0.0 0.00 0.00 0.00 71 1006.6
20260506093844 40 261 7.0 0.0 0.00 0.00 0.00 70 1006.6
20260506093339 41 247 6.0 0.0 0.00 0.00 0.00 70 1006.6
20260506092836 41 228 5.0 0.0 0.00 0.00 0.00 71 1006.4
20260506092345 41 233 6.0 0.0 0.00 0.00 0.00 71 1006.4
20260506091837 41 243 7.0 0.0 0.00 0.00 0.00 71 1006.4
20260506091330 41 267 7.0 0.0 0.00 0.00 0.00 70 1006.2
20260506090843 41 282 8.0 0.0 0.00 0.00 0.00 71 1006.2
20260506090338 41 202 7.0 0.0 0.00 0.00 0.00 70 1006.2
20260506085830 41 182 7.0 0.0 0.00 0.00 0.00 69 1006.0
20260506085355 41 238 9.0 0.0 0.00 0.00 0.00 69 1006.0
20260506084846 41 207 9.0 0.0 0.00 0.00 0.00 68 1006.0
20260506084339 42 233 8.0 0.0 0.00 0.00 0.00 67 1005.9
20260506083836 42 258 8.0 0.0 0.00 0.00 0.00 66 1005.9
20260506083346 42 292 8.0 0.0 0.00 0.00 0.00 65 1005.9
20260506082842 42 243 7.0 0.0 0.00 0.00 0.00 66 1005.8
20260506082336 43 288 7.0 0.0 0.00 0.00 0.00 64 1005.8
20260506081828 42 292 8.0 0.0 0.00 0.00 0.00 64 1005.8
20260506081344 42 238 7.0 0.0 0.00 0.00 0.00 64 1005.6
20260506080836 42 235 7.0 0.0 0.00 0.00 0.00 65 1005.6